Find Starlink 33553

NORAD ID: 62108 Int'l Des: 2024-220 Owner: SPXS Country: US Constellation: starlink operational
LEOCIRCULAR

Current View

Loading 3D Globe...

About Starlink 33553

Starlink 33553 (NORAD 62108) is a starlink constellation satellite (v2 mini) launched Nov 25, 2024 by SPXS of US. It operates in LEO, CIRCULAR orbit with a mass of 530.00 kg.

Upcoming Passes

Passes for default location (London). Set your location on the main map for personalized predictions.

Altitude History

Loading altitude history...

Two-Line Element Set

1 62108U 24220W 26237.53236199 .00012498 00000-0 46283-3 0 9995
2 62108 43.0020 331.9955 0001987 282.0839 77.9790 15.27586452 99013
Epoch: Aug 25, 2026 • Age: 5 hours

Current Status

Altitude 485.7 km
Apogee / Perigee N/A
Velocity 7.63 km/s
Sub-Earth Point 36.43°N, 142.53°E
Launch Date Nov 25, 2024
Age 1.7 years
Type internet

Technical Details

Classification Payload
Mass 530.00 kg
Dry Mass 500.00 kg
Total Mass 530.00 kg
Length 0.30 m
Diameter 4.10 m
Span 29.00 m
Shape Box + pan
Manufacturer SPXS
Bus Type Starlink V2MO
Phase Status In Orbit
Owner/State SPXS/US

Most Searched